Location: Long Island Community Building
(39.9491°N, 99.5338°W)
Time: 03:42:55
(UTC+00:00)

Orbus 7S? - Pass Details

Date: 06 December 2019
Orbit: 335 x 6436 km, 56.9° (Epoch: 11 November)

Event Time Altitude Azimuth Distance (km) Brightness Sun altitude
Rises 12:56:54 0° 218° (SW) 2,797 6.8 -9.2°
Reaches altitude 10° 12:59:30 10° 216° (SW) 1,549 5.5 -8.7°
Maximum altitude 13:02:28 66° 133° (SE) 384 2.8 -8.2°
Drops below altitude 10° 13:04:55 10° 49° (NE) 1,282 5.6 -7.8°
Sets 13:06:52 0° 47° (NE) 2,227 6.8 -7.4°
